Weather History for Mason, MI

Change the Weather History Date:

Wednesday, October 17, 2012

  Actual Average (KLAN) Record (KLAN)
Temperature  
Mean Temperature 64 °F 50 °F  
Max Temperature 74 °F 59 °F 84 °F (1956)
Min Temperature 53 °F 40 °F 13 °F (1868)
Degree Days  
Heating Degree Days 2 15  
Month to date heating degree days 215  
Since 1 July heating degree days 403  
Cooling Degree Days 0 0  
Month to date cooling degree days 4  
Year to date cooling degree days 622  
Growing Degree Days 14 (Base 50)    
Moisture  
Dew Point 48 °F    
Average Humidity 62    
Maximum Humidity 90    
Minimum Humidity 31    
Precipitation  
Precipitation 0.00 in 0.07 in 0.92 in (1899)
Month to date precipitation 1.43  
Year to date precipitation 26.02  
Snow  
Snow 0.00 in 0.00 in T in (1976)
Month to date snowfall 0.1  
Since 1 July snowfall 0.1  
Since 1 September snowfall 0.1  
Snow Depth -    
Sea Level Pressure  
Sea Level Pressure 29.62 in    
Wind  
Wind Speed 10 mph (South)    
Max Wind Speed 20 mph    
Max Gust Speed 30 mph    
Visibility 10 miles    
Events Rain    
T = Trace of Precipitation, MM = Missing Value Source: NWS Daily Summary

Daily Weather History Graph

Daily Weather History Graph

Search for Another Location

Airport:

Trip Planner

Search our weather history database for the weather conditions in past years. The results will help you decide how hot, cold, wet, or windy it might be!

Date:

Astronomy

Oct. 17, 2012 Rise Set
Actual Time 7:53 AM EDT 6:51 PM EDT
Civil Twilight 7:25 AM EDT 7:19 PM EDT
Nautical Twilight 6:52 AM EDT 7:52 PM EDT
Astronomical Twilight 6:19 AM EDT 8:25 PM EDT
Moon 10:30 AM EDT (10/17) 8:22 PM EDT (10/17)
Length of Visible Light 11h 54m
Length of Day
10h 57m
Waxing Crescent, 7% of the Moon is Illuminated
Oct 17
Waxing Crescent
Oct 21
First Quarter
Oct 29
Full
Nov 6
Last Quarter
Nov 13
New

Hourly Weather History & Observations

Time (EDT) Temp. Dew Point Humidity Pressure Visibility Wind Dir Wind Speed Gust Speed Precip Events Conditions
12:12 AM 55.6 °F 42.8 °F 62% 29.71 in 10.0 mi South 9.2 mph - N/A   Overcast
12:33 AM 56.3 °F 42.8 °F 61% 29.70 in 10.0 mi SSE 11.5 mph 16.1 mph N/A   Overcast
12:52 AM 56.7 °F 42.6 °F 59% 29.70 in 10.0 mi SSE 10.4 mph - N/A   Overcast
1:12 AM 56.7 °F 42.8 °F 60% 29.69 in 10.0 mi South 10.4 mph - N/A   Overcast
1:33 AM 56.5 °F 43.0 °F 61% 29.69 in 10.0 mi SSE 11.5 mph - N/A   Overcast
1:52 AM 56.1 °F 43.7 °F 63% 29.69 in 10.0 mi South 10.4 mph - N/A Rain Light Rain
2:12 AM 55.2 °F 44.4 °F 67% 29.69 in 10.0 mi South 6.9 mph - N/A Rain Light Rain
2:33 AM 55.6 °F 45.3 °F 68% 29.69 in 10.0 mi South 10.4 mph - N/A Rain Light Rain
2:52 AM 53.8 °F 46.8 °F 77% 29.68 in 10.0 mi SSE 13.8 mph 19.6 mph N/A Rain Light Rain
3:12 AM 53.4 °F 46.8 °F 78% 29.67 in 10.0 mi SSE 12.7 mph 18.4 mph N/A Rain Light Rain
3:32 AM 53.6 °F 46.4 °F 77% 29.67 in 10.0 mi South 9.2 mph - N/A   Overcast
3:52 AM 54.0 °F 45.9 °F 74% 29.67 in 10.0 mi South 10.4 mph - N/A   Overcast
4:12 AM 54.5 °F 45.9 °F 73% 29.66 in 10.0 mi South 9.2 mph 16.1 mph N/A   Overcast
4:32 AM 54.5 °F 45.9 °F 73% 29.66 in 10.0 mi South 9.2 mph - N/A   Overcast
4:52 AM 54.9 °F 46.4 °F 73% 29.66 in 10.0 mi South 5.8 mph - N/A   Overcast
5:12 AM 54.7 °F 46.4 °F 74% 29.66 in 10.0 mi South 4.6 mph - N/A   Mostly Cloudy
5:32 AM 54.9 °F 46.8 °F 74% 29.66 in 10.0 mi South 4.6 mph - N/A   Scattered Clouds
5:52 AM 55.8 °F 47.3 °F 73% 29.66 in 10.0 mi South 6.9 mph - N/A   Scattered Clouds
6:12 AM 57.0 °F 47.3 °F 70% 29.66 in 10.0 mi South 5.8 mph - N/A   Clear
6:32 AM 56.5 °F 47.3 °F 71% 29.66 in 10.0 mi South 5.8 mph - N/A   Clear
6:52 AM 55.9 °F 47.3 °F 73% 29.66 in 10.0 mi South 3.5 mph - N/A   Clear
7:12 AM 55.9 °F 47.5 °F 73% 29.66 in 10.0 mi South 5.8 mph - N/A   Clear
7:32 AM 56.1 °F 47.5 °F 73% 29.66 in 10.0 mi South 8.1 mph - N/A   Clear
7:52 AM 55.8 °F 47.7 °F 74% 29.66 in 10.0 mi South 8.1 mph - N/A   Clear
8:12 AM 56.1 °F 47.8 °F 74% 29.66 in 10.0 mi South 9.2 mph - N/A   Clear
8:32 AM 56.5 °F 48.2 °F 74% 29.66 in 10.0 mi South 9.2 mph 16.1 mph N/A   Clear
8:52 AM 56.8 °F 48.2 °F 73% 29.66 in 10.0 mi South 10.4 mph - N/A   Clear
9:13 AM 57.2 °F 48.2 °F 72% 29.66 in 10.0 mi South 13.8 mph 17.3 mph N/A   Clear
9:32 AM 59.0 °F 48.6 °F 68% 29.66 in 10.0 mi South 10.4 mph 17.3 mph N/A   Clear
9:52 AM 60.6 °F 48.9 °F 65% 29.67 in 10.0 mi South 5.8 mph - N/A   Clear
10:13 AM 61.7 °F 48.2 °F 61% 29.67 in 10.0 mi South 9.2 mph - N/A   Clear
10:32 AM 63.0 °F 48.0 °F 58% 29.66 in 10.0 mi South 8.1 mph 18.4 mph N/A   Clear
10:52 AM 63.9 °F 47.8 °F 56% 29.66 in 10.0 mi South 10.4 mph 20.7 mph N/A   Clear
11:13 AM 64.6 °F 47.3 °F 53% 29.66 in 10.0 mi South 10.4 mph 16.1 mph N/A   Clear
11:32 AM 65.8 °F 48.0 °F 53% 29.64 in 10.0 mi South 9.2 mph 16.1 mph N/A   Clear
11:52 AM 67.1 °F 47.7 °F 50% 29.64 in 10.0 mi South 10.4 mph 21.9 mph N/A   Clear
12:13 PM 67.6 °F 47.7 °F 49% 29.63 in 10.0 mi South 11.5 mph 19.6 mph N/A   Clear
12:52 PM 70.2 °F 46.9 °F 43% 29.62 in 10.0 mi South 12.7 mph 23.0 mph N/A   Clear
1:13 PM 71.6 °F 45.9 °F 40% 29.61 in 10.0 mi South 11.5 mph 25.3 mph N/A   Clear
1:32 PM 72.1 °F 45.5 °F 38% 29.60 in 10.0 mi South 11.5 mph 19.6 mph N/A   Clear
1:52 PM 72.9 °F 42.3 °F 33% 29.59 in 10.0 mi SSW 9.2 mph 20.7 mph N/A   Clear
2:12 PM 73.6 °F 41.4 °F 31% 29.59 in 10.0 mi SSW 16.1 mph 26.5 mph N/A   Clear
2:32 PM 74.1 °F 42.6 °F 32% 29.58 in 10.0 mi SSW 8.1 mph - N/A   Clear
2:52 PM 74.1 °F 42.3 °F 32% 29.58 in 10.0 mi South 6.9 mph 18.4 mph N/A   Clear
3:12 PM 73.4 °F 42.4 °F 33% 29.57 in 10.0 mi South 11.5 mph 20.7 mph N/A   Clear
3:33 PM 74.7 °F 42.4 °F 31% 29.57 in 10.0 mi South 15.0 mph 24.2 mph N/A   Clear
3:52 PM 74.7 °F 42.3 °F 31% 29.57 in 10.0 mi South 9.2 mph 23.0 mph N/A   Clear
4:12 PM 73.2 °F 42.8 °F 33% 29.57 in 10.0 mi South 8.1 mph 20.7 mph N/A   Mostly Cloudy
4:33 PM 72.1 °F 44.4 °F 37% 29.56 in 10.0 mi South 6.9 mph - N/A   Scattered Clouds
4:52 PM 73.6 °F 45.0 °F 36% 29.55 in 10.0 mi South 9.2 mph 17.3 mph N/A   Scattered Clouds
5:12 PM 72.5 °F 45.7 °F 38% 29.55 in 10.0 mi South 8.1 mph 18.4 mph N/A   Mostly Cloudy
5:33 PM 72.0 °F 46.2 °F 40% 29.55 in 10.0 mi South 9.2 mph - N/A   Overcast
5:52 PM 71.6 °F 46.4 °F 41% 29.54 in 10.0 mi South 8.1 mph 20.7 mph N/A   Overcast
6:12 PM 71.1 °F 46.9 °F 42% 29.54 in 10.0 mi South 6.9 mph - N/A   Overcast
6:33 PM 70.7 °F 46.8 °F 42% 29.55 in 10.0 mi South 4.6 mph - N/A   Overcast
6:52 PM 70.2 °F 47.3 °F 44% 29.56 in 10.0 mi South 5.8 mph 16.1 mph N/A   Overcast
7:12 PM 69.8 °F 47.5 °F 45% 29.56 in 10.0 mi South 8.1 mph - N/A   Overcast
7:33 PM 67.8 °F 50.2 °F 53% 29.57 in 10.0 mi SSW 11.5 mph 29.9 mph N/A Rain Rain
7:52 PM 63.0 °F 52.2 °F 68% 29.58 in 10.0 mi South 9.2 mph 23.0 mph N/A Rain Rain
8:13 PM 61.3 °F 53.4 °F 75% 29.59 in 10.0 mi South 6.9 mph 18.4 mph N/A Rain Light Rain
8:33 PM 59.9 °F 54.5 °F 82% 29.59 in 7.0 mi South 4.6 mph - N/A Rain Light Rain
8:52 PM 60.1 °F 54.5 °F 82% 29.59 in 10.0 mi South 9.2 mph - N/A Rain Rain
9:13 PM 59.0 °F 55.0 °F 87% 29.59 in 5.0 mi South 9.2 mph 20.7 mph N/A Rain Rain
9:33 PM 58.6 °F 55.4 °F 89% 29.57 in 10.0 mi SSE 12.7 mph 17.3 mph N/A Rain Light Rain
9:52 PM 58.6 °F 55.4 °F 89% 29.56 in 10.0 mi South 16.1 mph 21.9 mph N/A Rain Light Rain
10:13 PM 58.8 °F 55.4 °F 88% 29.56 in 10.0 mi South 13.8 mph 26.5 mph N/A   Overcast
10:33 PM 58.6 °F 55.0 °F 88% 29.56 in 10.0 mi South 12.7 mph 20.7 mph N/A Rain Rain
10:52 PM 58.3 °F 55.0 °F 89% 29.54 in 7.0 mi SSE 13.8 mph 23.0 mph N/A Rain Rain
11:13 PM 58.1 °F 55.0 °F 90% 29.54 in 7.0 mi SSE 19.6 mph 23.0 mph N/A Rain Rain
11:33 PM 58.3 °F 54.9 °F 88% 29.56 in 10.0 mi South 9.2 mph - N/A Rain Rain
11:52 PM 58.5 °F 54.7 °F 87% 29.54 in 7.0 mi SE 11.5 mph - N/A Rain Rain